SCP
0 0 0 0 0 0 0 0 0 0 0 0 0 0 0 0 0 0 0 0 0 0 0 0 0 0 0 0 0 0 0 0 0 0 0 0 0 0 0 0 0 0 0 0 0
0 0 0 0 0 0 0 0 0 0 0 0 0 0 0 0 0 0 0 0 0 0 0 0 0 0 0 0 0 0 0 0 0 0 0 0 0 0 0 0 0 0 0 0 0
0 0 0 0 0 0 0 0 0 0 0 0 0 0 0 0 0 0 0 0 0 0 0 0 0 0 0 0 0 0 0 0 0 0 0 0 0 0 0 0 0 0 0 0 0
0 0 0 0 0 0 0 0 0 0 0 0 0 0 0 0 0 0 0 0 0 0 0 0 0 0 0 0 0 0 0 0 0 0 0 0 0 0 0 0 0 0 0 0 0
-0 0 0 0 0 0 0 0 0 0 0 0 0 0 0 0 0 0 0 0 0 0 0 0 0 0 0 0 0 0 0 0 0 0 0 0 0 0 0 0 0 0 0 0 0
-0 -0 0 0 0 0 0 0 0 0 0 0 0 0 0 0 0 0 0 0 0 0 0 0 0 0 0 0 0 0 0 0 0 0 0 0 0 0 0 0 0 0 0 0 0
-0 -0 -0 0 -0 -0 -0 0 0 0 0 0 0 0 0 0 0 0 0 0 0 0 0 0 0 0 0 0 0 0 0 0 0 0 0 0 0 0 0 0 0 0 0 0 0
-0 -0 -0 -0 -0 -0 -0 0 0 0 0 0 0 0 0 0 0 0 0 0 0 0 0 0 0 0 0 0 0 0 0 0 0 0 0 0 0 0 0 0 0 0 0 0 0
-0 -0 -0 -0 -0 -0 -0 0 0 0 0 0 0 0 0 0 0 0 0 0 0 0 0 0 0 0 0 0 0 0 0 0 0 0 0 0 0 0 0 0 0 0 0 0 0
-0 0 -0 -0 -0 -0 -0 -0 -0 0 0 0 0 0 0 0 0 0 0 0 0 0 0 0 0 0 0 0 0 0 0 0 0 0 0 0 0 0 0 0 0 0 0 0 0
-0 0 -0 -0 -0 -0 0 0 0 0 0 0 0 0 0 0 0 0 0 0 0 0 0 0 0 0 0 0 0 0 0 0 0 0 0 0 0 0 0 0 0 0 0 0 0
0 -0 0 0 0 0 0 0 0 0 0 -0 0 0 0 0 0 0 0 0 0 0 0 0 0 0 0 0 0 0 0 0 0 0 0 0 0 0 0 0 0 0 0 0 0
-0 -0 -0 -0 0 0 0 0 0 0 0 0 0 0 0 0 0 0 0 0 0 0 0 0 0 0 0 0 0 0 0 0 0 0 0 0 0 0 0 0 0 0 0 0 0
0 0 0 0 0 0 0 -0 0 0 0 0 0 0 0 0 0 0 0 0 0 0 0 0 0 0 0 0 0 0 0 0 0 0 0 0 0 0 0 0 0 0 0 0 0
-0 0 0 0 0 0 -0 -0 0 0 0 0 0 0 0 0 0 0 0 0 0 0 0 0 0 0 0 0 0 0 0 0 0 0 0 0 0 0 0 0 0 0 0 0 0
-0 -0 0 0 0 0 0 0 0 0 0 0 0 0 0 0 0 0 0 0 0 0 -0 -0 0 0 0 0 0 0 0 0 0 0 0 0 0 0 0 0 0 0 0 0 0
-0 -0 0 0 0 0 0 0 0 0 0 0 0 0 0 0 0 0 0 0 0 0 -0 0 0 0 0 0 0 0 0 -0 -0 -0 0 0 0 -0 -0 0 0 0 0 0 0
0 0 0 0 0 0 0 0 0 0 0 0 -0 0 0 0 0 0 0 0 0 0 0 0 0 0 -0 0 0 0 0 0 0 0 0 0 -0 0 0 0 0 0 0 -0 0
0 0 0 0 0 0 0 0 -0 0 0 0 0 0 0 0 0 0 0 0 0 -0 0 0 0 0 -0 -0 0 -0 0 -0 -0 0 0 0 0 0 -0 0 0 -0 -0 -0 0
0 0 0 0 0 0 0 0 0 0 0 0 0 0 0 0 0 0 0 0 0 0 0 0 0 0 0 0 -0 0 0 0 0 0 0 0 0 0 0 -0 0 0 0 0 0
0 0 0 0 0 0 0 0 0 0 0 0 0 0 0 0 0 0 0 0 0 0 0 0 0 0 0 0 0 0 0 0 0 0 0 0 0 0 0 0 0 0 0 0 0
0 0 0 0 0 0 0 0 0 0 0 0 0 0 0 0 0 0 0 0 0 0 0 0 0 0 0 0 0 0 0 0 0 0 0 0 0 0 0 0 0 0 0 0 0
0 0 0 0 0 0 0 0 0 0 0 0 0 0 0 0 0 0 0 0 0 0 0 0 0 0 0 0 0 0 0 0 0 0 0 0 0 0 0 0 0 0 0 0 0
0 0 0 0 0 0 0 0 0 0 0 0 0 0 0 0 0 0 0 0 0 0 0 0 0 0 0 0 0 0 0 0 0 0 0 0 0 0 0 0 0 -0 0 0 0
0 0 0 -0 0 0 0 0 0 0 0 0 0 0 0 0 0 0 0 0 0 -0 -0 0 0 0 0 0 0 0 0 0 0 0 0 0 0 0 0 0 0 0 -0 0 0
0 0 -0 0 0 0 0 0 0 0 0 0 0 0 0 0 -0 -0 0 -0 0 -0 0 0 0 0 0 0 0 0 0 0 0 0 0 0 0 0 0 0 0 0 0 0 0
0 0 0 -0 -0 0 0 0 0 0 0 0 0 0 0 -0 -0 -0 -0 -0 0 0 0 0 0 0 0 0 0 0 0 0 0 0 0 0 0 0 0 0 0 0 0 0 0
Wind_Speed_500mb
15 20 13 13 12 20 30 34 25 17 34 26 27 20 12 10 10 9 10 15 17 20 23 21 22 24 21 10 8 7 7 12 9 12 9 8 10 4 4 11 7 9 10 7 13
14 15 17 13 13 7 13 35 43 32 32 33 28 23 17 15 18 15 16 21 20 20 22 23 24 22 10 7 4 9 8 6 7 4 6 8 4 4 8 13 18 23 27 24 27
11 10 11 8 11 10 8 14 35 37 25 35 33 27 20 25 17 9 17 22 17 18 23 23 26 15 10 10 5 6 5 6 4 1 2 5 13 14 15 22 33 28 28 29 33
14 9 3 9 5 5 7 10 18 24 29 36 35 28 25 26 9 17 21 16 17 17 22 22 17 11 13 13 6 7 4 1 1 1 7 10 10 18 33 41 25 32 35 43 45
9 6 4 7 11 20 10 16 16 33 35 45 38 33 34 22 18 34 24 13 22 24 22 20 15 12 13 12 11 5 6 4 8 15 21 25 34 32 36 37 42 42 41 45 47
6 9 2 2 8 11 15 15 11 34 39 47 41 37 26 28 27 28 15 12 21 24 22 12 13 19 17 10 1 5 2 7 13 18 18 24 40 19 8 13 23 28 35 38 48
17 3 7 5 5 6 21 18 15 35 42 49 43 32 31 23 28 20 16 27 28 24 25 27 22 6 13 12 6 3 7 9 10 10 9 15 30 22 20 11 20 24 30 33 41
12 5 11 13 15 10 3 12 22 39 45 48 48 34 18 34 26 22 25 29 24 23 25 23 18 20 10 14 4 1 3 7 5 9 4 3 22 15 3 13 34 46 51 50 50
5 9 11 12 16 13 8 27 35 41 37 36 32 23 15 35 28 28 22 29 26 24 27 18 11 11 8 4 3 6 5 7 11 5 9 11 26 5 28 59 58 48 44 47 48
1 12 13 17 15 13 31 46 55 61 46 38 33 22 18 19 33 23 30 23 19 20 15 13 11 5 5 2 4 2 4 5 16 2 18 32 46 44 43 48 50 47 40 23 26
8 11 12 19 24 24 45 67 44 31 42 15 19 37 33 32 30 27 18 17 14 16 8 12 4 5 5 5 6 4 4 15 20 13 16 27 41 41 51 49 42 39 20 18 35
13 14 12 20 19 26 18 18 28 34 33 47 45 44 34 17 20 17 16 5 7 10 6 6 6 0 9 8 4 6 12 18 20 8 14 29 47 42 25 21 16 17 22 38 51
10 12 16 22 16 21 28 42 45 34 19 24 33 22 14 15 12 8 6 7 9 7 7 5 9 13 5 7 10 15 18 17 12 19 25 27 28 8 7 8 8 18 33 51 55
12 5 18 25 19 26 45 52 25 13 9 13 13 11 7 17 11 8 11 3 5 5 3 3 6 12 16 16 16 8 5 13 14 11 11 10 11 8 6 7 13 24 47 59 64
32 26 25 16 29 37 46 21 11 8 8 11 11 8 12 9 19 7 6 7 8 6 5 5 11 12 12 7 16 5 3 12 19 17 16 6 6 8 3 9 16 44 61 66 70
30 20 21 30 30 39 27 10 10 1 11 5 7 6 10 11 6 5 3 6 5 4 7 11 1 6 7 1 16 10 15 12 7 7 9 4 8 9 5 9 35 54 65 66 66
27 25 25 33 30 32 10 2 3 10 2 5 7 6 9 4 6 2 2 3 1 2 4 4 6 5 9 10 7 7 6 4 5 6 5 4 8 18 18 14 41 47 65 66 66
32 33 41 39 26 13 3 2 15 1 6 3 9 12 5 2 3 3 3 1 5 4 3 4 5 13 17 9 4 6 3 6 8 7 14 10 11 2 7 33 55 56 57 62 62
32 40 31 21 11 1 2 12 7 5 9 16 12 5 4 4 2 1 3 4 3 8 2 5 6 4 11 5 5 10 6 3 8 6 9 4 10 14 13 41 52 51 51 55 68
17 22 27 17 16 9 6 13 6 5 14 5 5 2 6 5 4 2 4 4 3 10 5 1 6 5 2 6 16 7 4 6 6 8 9 6 8 8 30 37 36 42 54 63 60
9 9 26 20 25 20 9 11 11 3 2 2 7 8 5 6 5 4 3 5 6 7 7 5 5 5 6 7 6 7 4 8 6 6 7 10 4 5 23 28 29 36 50 49 54
10 6 21 10 10 7 8 4 2 2 5 5 6 6 7 11 9 8 9 7 6 9 3 6 3 5 0 10 5 2 5 4 6 1 7 5 7 15 28 31 37 38 47 47 47
13 9 26 9 8 8 6 4 4 3 6 2 4 2 3 8 5 9 7 5 6 6 3 3 1 5 6 7 5 5 5 8 12 3 6 7 9 17 35 28 49 44 49 46 45
9 4 16 24 16 12 7 3 2 7 4 4 5 3 5 6 7 6 4 2 4 8 6 5 4 7 6 5 3 6 10 5 3 6 9 6 25 24 25 27 45 58 56 57 65
8 6 5 5 7 10 4 3 2 3 5 7 4 2 6 7 6 5 2 4 5 4 3 4 6 8 18 22 15 12 20 15 8 13 9 12 22 19 23 24 36 49 64 67 70
9 11 9 8 1 1 3 4 3 2 3 1 4 2 6 4 5 2 2 4 4 2 2 2 5 5 11 12 20 25 28 27 25 18 22 20 21 7 18 24 35 40 45 52 57
13 19 10 2 6 3 0 5 9 9 6 7 2 3 1 4 1 3 6 7 8 4 2 3 5 5 9 9 16 19 19 25 9 12 9 10 4 12 11 18 27 31 36 40 45
Wind_Direction_500mb
221 237 241 233 236 232 235 234 235 222 192 191 186 190 171 147 127 118 131 155 144 147 150 153 146 154 151 124 112 125 216 217 198 187 119 141 190 181 224 250 255 251 262 271 267
211 217 218 233 210 225 231 226 233 233 193 200 189 183 162 134 113 103 135 130 132 143 143 141 135 138 103 112 86 208 223 204 18 84 123 145 225 232 253 224 242 252 261 279 290
216 222 172 192 221 222 245 253 229 232 214 183 180 174 156 139 109 53 132 132 139 144 154 149 140 127 111 142 117 161 243 143 91 2 341 246 245 241 254 252 251 256 273 279 284
203 205 255 238 224 266 245 286 258 201 192 178 173 168 150 142 139 131 109 135 161 144 147 135 137 125 132 157 131 157 162 171 148 311 301 267 274 259 250 253 273 271 271 278 280
225 183 80 230 235 246 280 288 250 198 193 176 166 154 134 105 110 134 141 136 143 145 141 131 133 123 130 131 136 191 151 258 280 288 286 277 265 266 268 269 268 269 269 268 272
170 136 74 88 174 219 229 270 263 185 174 160 154 146 125 94 116 127 149 138 151 151 134 120 122 111 105 104 50 100 189 279 285 281 279 278 278 282 240 267 275 262 265 267 271
155 135 20 16 33 175 216 242 220 181 171 136 134 120 104 101 129 133 135 117 121 133 124 115 115 110 115 118 91 76 300 285 265 284 269 311 269 239 263 281 273 273 272 271 272
149 55 29 0 351 344 332 182 181 170 154 133 124 122 86 115 111 121 129 119 123 126 120 107 107 94 70 114 68 291 238 282 117 295 267 218 256 161 338 308 289 284 282 279 275
66 33 17 6 352 12 106 127 134 153 130 126 129 125 119 121 125 123 129 125 126 117 104 106 102 83 100 107 201 49 309 300 295 277 288 237 286 274 287 290 283 282 284 286 285
350 29 23 24 37 94 137 144 133 120 117 121 124 103 128 129 134 123 128 130 109 104 85 57 59 94 83 76 280 118 309 288 273 213 271 278 275 278 279 272 277 280 285 285 300
37 48 52 60 89 95 112 104 96 71 65 67 92 97 122 126 128 125 125 102 88 63 67 41 61 59 95 91 97 127 233 273 273 286 277 271 280 286 282 279 268 266 252 290 312
39 57 81 101 113 100 126 79 101 119 67 64 85 94 103 106 112 117 127 89 65 87 102 106 69 360 109 127 183 249 285 273 276 220 287 295 289 287 290 282 241 224 269 300 312
32 83 113 122 118 71 95 110 105 96 79 41 59 72 76 97 92 100 97 99 92 98 81 76 113 117 137 177 222 239 254 286 286 319 277 284 273 231 207 257 255 271 289 301 306
37 115 129 132 109 104 118 120 106 93 90 22 40 52 75 131 71 97 83 77 88 78 98 321 130 232 241 237 221 274 227 270 293 308 285 331 290 296 261 244 249 297 316 314 310
63 72 127 124 127 130 130 129 73 19 83 6 4 47 57 77 133 51 69 36 85 127 204 132 192 192 229 249 171 285 187 250 265 268 288 158 253 274 278 271 317 326 326 319 311
60 87 110 132 129 134 128 110 350 123 74 26 345 102 98 55 63 109 101 60 96 200 246 257 188 258 251 268 214 282 276 250 252 253 258 188 247 259 254 310 325 330 324 318 313
61 86 120 131 115 141 125 333 42 48 221 97 90 86 94 84 106 125 96 139 232 234 237 280 201 235 214 230 185 224 281 262 237 221 291 149 225 273 280 301 334 330 322 318 313
76 104 114 111 112 129 114 306 66 177 105 168 136 114 109 68 77 151 154 152 192 217 135 1 201 195 176 221 196 186 224 305 299 303 306 140 241 230 21 332 338 326 321 316 321
99 97 94 84 48 186 195 61 69 95 130 148 151 99 98 101 129 154 214 243 243 198 277 239 235 167 214 183 194 136 214 334 272 221 270 237 257 252 333 338 333 325 325 323 329
74 62 31 22 31 54 87 88 94 129 132 173 119 238 157 165 186 230 214 150 233 197 230 56 287 185 192 221 222 227 9 238 199 295 293 241 269 291 337 319 324 330 328 329 332
46 78 14 56 54 51 66 86 104 76 185 175 153 136 170 166 201 208 223 202 235 161 199 184 245 109 190 206 155 188 230 230 278 272 303 309 339 54 317 323 323 314 318 325 335
44 64 7 69 54 29 69 20 153 337 67 103 104 103 161 177 185 217 226 238 169 176 220 189 275 289 251 156 181 266 276 243 278 170 230 284 294 4 327 328 332 328 336 351 358
77 59 31 101 89 81 105 79 67 360 35 106 142 207 175 184 224 231 215 236 204 195 314 191 299 301 172 154 161 249 239 278 283 275 256 295 302 329 326 341 349 351 360 3 9
108 76 35 61 89 113 118 31 60 29 45 24 74 127 157 191 227 229 247 286 173 228 216 235 270 248 276 320 303 258 266 269 236 278 315 268 288 314 328 353 352 355 3 12 21
74 90 115 88 54 110 121 51 82 24 16 13 145 181 203 198 206 226 193 286 155 21 124 259 277 252 266 257 253 262 274 273 229 264 263 312 303 312 343 357 354 0 9 18 20
113 139 104 104 53 197 5 126 153 170 311 202 267 310 273 277 349 55 317 30 22 30 170 214 288 308 284 285 248 265 264 260 263 259 257 275 284 0 355 4 9 11 10 13 16
111 130 137 154 146 185 296 174 176 174 197 234 227 271 105 65 17 277 264 242 262 276 243 237 288 319 278 321 302 272 262 227 178 202 234 254 304 326 350 9 15 7 19 16 17
Wind_Speed_850mb
15 20 13 13 12 20 30 34 25 17 34 26 27 20 12 10 10 9 10 15 17 20 23 21 22 24 21 10 8 7 7 12 9 12 9 8 10 4 4 11 7 9 10 7 13
14 15 17 13 13 7 13 35 43 32 32 33 28 23 17 15 18 15 16 21 20 20 22 23 24 22 10 7 4 9 8 6 7 4 6 8 4 4 8 13 18 23 27 24 27
11 10 11 8 11 10 8 14 35 37 25 35 33 27 20 25 17 9 17 22 17 18 23 23 26 15 10 10 5 6 5 6 4 1 2 5 13 14 15 22 33 28 28 29 33
14 9 3 9 5 5 7 10 18 24 29 36 35 28 25 26 9 17 21 16 17 17 22 22 17 11 13 13 6 7 4 1 1 1 7 10 10 18 33 41 25 32 35 43 45
9 6 4 7 11 20 10 16 16 33 35 45 38 33 34 22 18 34 24 13 22 24 22 20 15 12 13 12 11 5 6 4 8 15 21 25 34 32 36 37 42 42 41 45 47
6 9 2 2 8 11 15 15 11 34 39 47 41 37 26 28 27 28 15 12 21 24 22 12 13 19 17 10 1 5 2 7 13 18 18 24 40 19 8 13 23 28 35 38 48
17 3 7 5 5 6 21 18 15 35 42 49 43 32 31 23 28 20 16 27 28 24 25 27 22 6 13 12 6 3 7 9 10 10 9 15 30 22 20 11 20 24 30 33 41
12 5 11 13 15 10 3 12 22 39 45 48 48 34 18 34 26 22 25 29 24 23 25 23 18 20 10 14 4 1 3 7 5 9 4 3 22 15 3 13 34 46 51 50 50
5 9 11 12 16 13 8 27 35 41 37 36 32 23 15 35 28 28 22 29 26 24 27 18 11 11 8 4 3 6 5 7 11 5 9 11 26 5 28 59 58 48 44 47 48
1 12 13 17 15 13 31 46 55 61 46 38 33 22 18 19 33 23 30 23 19 20 15 13 11 5 5 2 4 2 4 5 16 2 18 32 46 44 43 48 50 47 40 23 26
8 11 12 19 24 24 45 67 44 31 42 15 19 37 33 32 30 27 18 17 14 16 8 12 4 5 5 5 6 4 4 15 20 13 16 27 41 41 51 49 42 39 20 18 35
13 14 12 20 19 26 18 18 28 34 33 47 45 44 34 17 20 17 16 5 7 10 6 6 6 0 9 8 4 6 12 18 20 8 14 29 47 42 25 21 16 17 22 38 51
10 12 16 22 16 21 28 42 45 34 19 24 33 22 14 15 12 8 6 7 9 7 7 5 9 13 5 7 10 15 18 17 12 19 25 27 28 8 7 8 8 18 33 51 55
12 5 18 25 19 26 45 52 25 13 9 13 13 11 7 17 11 8 11 3 5 5 3 3 6 12 16 16 16 8 5 13 14 11 11 10 11 8 6 7 13 24 47 59 64
32 26 25 16 29 37 46 21 11 8 8 11 11 8 12 9 19 7 6 7 8 6 5 5 11 12 12 7 16 5 3 12 19 17 16 6 6 8 3 9 16 44 61 66 70
30 20 21 30 30 39 27 10 10 1 11 5 7 6 10 11 6 5 3 6 5 4 7 11 1 6 7 1 16 10 15 12 7 7 9 4 8 9 5 9 35 54 65 66 66
27 25 25 33 30 32 10 2 3 10 2 5 7 6 9 4 6 2 2 3 1 2 4 4 6 5 9 10 7 7 6 4 5 6 5 4 8 18 18 14 41 47 65 66 66
32 33 41 39 26 13 3 2 15 1 6 3 9 12 5 2 3 3 3 1 5 4 3 4 5 13 17 9 4 6 3 6 8 7 14 10 11 2 7 33 55 56 57 62 62
32 40 31 21 11 1 2 12 7 5 9 16 12 5 4 4 2 1 3 4 3 8 2 5 6 4 11 5 5 10 6 3 8 6 9 4 10 14 13 41 52 51 51 55 68
17 22 27 17 16 9 6 13 6 5 14 5 5 2 6 5 4 2 4 4 3 10 5 1 6 5 2 6 16 7 4 6 6 8 9 6 8 8 30 37 36 42 54 63 60
9 9 26 20 25 20 9 11 11 3 2 2 7 8 5 6 5 4 3 5 6 7 7 5 5 5 6 7 6 7 4 8 6 6 7 10 4 5 23 28 29 36 50 49 54
10 6 21 10 10 7 8 4 2 2 5 5 6 6 7 11 9 8 9 7 6 9 3 6 3 5 0 10 5 2 5 4 6 1 7 5 7 15 28 31 37 38 47 47 47
13 9 26 9 8 8 6 4 4 3 6 2 4 2 3 8 5 9 7 5 6 6 3 3 1 5 6 7 5 5 5 8 12 3 6 7 9 17 35 28 49 44 49 46 45
9 4 16 24 16 12 7 3 2 7 4 4 5 3 5 6 7 6 4 2 4 8 6 5 4 7 6 5 3 6 10 5 3 6 9 6 25 24 25 27 45 58 56 57 65
8 6 5 5 7 10 4 3 2 3 5 7 4 2 6 7 6 5 2 4 5 4 3 4 6 8 18 22 15 12 20 15 8 13 9 12 22 19 23 24 36 49 64 67 70
9 11 9 8 1 1 3 4 3 2 3 1 4 2 6 4 5 2 2 4 4 2 2 2 5 5 11 12 20 25 28 27 25 18 22 20 21 7 18 24 35 40 45 52 57
13 19 10 2 6 3 0 5 9 9 6 7 2 3 1 4 1 3 6 7 8 4 2 3 5 5 9 9 16 19 19 25 9 12 9 10 4 12 11 18 27 31 36 40 45
Wind_Direction_850mb
221 237 241 233 236 232 235 234 235 222 192 191 186 190 171 147 127 118 131 155 144 147 150 153 146 154 151 124 112 125 216 217 198 187 119 141 190 181 224 250 255 251 262 271 267
211 217 218 233 210 225 231 226 233 233 193 200 189 183 162 134 113 103 135 130 132 143 143 141 135 138 103 112 86 208 223 204 18 84 123 145 225 232 253 224 242 252 261 279 290
216 222 172 192 221 222 245 253 229 232 214 183 180 174 156 139 109 53 132 132 139 144 154 149 140 127 111 142 117 161 243 143 91 2 341 246 245 241 254 252 251 256 273 279 284
203 205 255 238 224 266 245 286 258 201 192 178 173 168 150 142 139 131 109 135 161 144 147 135 137 125 132 157 131 157 162 171 148 311 301 267 274 259 250 253 273 271 271 278 280
225 183 80 230 235 246 280 288 250 198 193 176 166 154 134 105 110 134 141 136 143 145 141 131 133 123 130 131 136 191 151 258 280 288 286 277 265 266 268 269 268 269 269 268 272
170 136 74 88 174 219 229 270 263 185 174 160 154 146 125 94 116 127 149 138 151 151 134 120 122 111 105 104 50 100 189 279 285 281 279 278 278 282 240 267 275 262 265 267 271
155 135 20 16 33 175 216 242 220 181 171 136 134 120 104 101 129 133 135 117 121 133 124 115 115 110 115 118 91 76 300 285 265 284 269 311 269 239 263 281 273 273 272 271 272
149 55 29 0 351 344 332 182 181 170 154 133 124 122 86 115 111 121 129 119 123 126 120 107 107 94 70 114 68 291 238 282 117 295 267 218 256 161 338 308 289 284 282 279 275
66 33 17 6 352 12 106 127 134 153 130 126 129 125 119 121 125 123 129 125 126 117 104 106 102 83 100 107 201 49 309 300 295 277 288 237 286 274 287 290 283 282 284 286 285
350 29 23 24 37 94 137 144 133 120 117 121 124 103 128 129 134 123 128 130 109 104 85 57 59 94 83 76 280 118 309 288 273 213 271 278 275 278 279 272 277 280 285 285 300
37 48 52 60 89 95 112 104 96 71 65 67 92 97 122 126 128 125 125 102 88 63 67 41 61 59 95 91 97 127 233 273 273 286 277 271 280 286 282 279 268 266 252 290 312
39 57 81 101 113 100 126 79 101 119 67 64 85 94 103 106 112 117 127 89 65 87 102 106 69 360 109 127 183 249 285 273 276 220 287 295 289 287 290 282 241 224 269 300 312
32 83 113 122 118 71 95 110 105 96 79 41 59 72 76 97 92 100 97 99 92 98 81 76 113 117 137 177 222 239 254 286 286 319 277 284 273 231 207 257 255 271 289 301 306
37 115 129 132 109 104 118 120 106 93 90 22 40 52 75 131 71 97 83 77 88 78 98 321 130 232 241 237 221 274 227 270 293 308 285 331 290 296 261 244 249 297 316 314 310
63 72 127 124 127 130 130 129 73 19 83 6 4 47 57 77 133 51 69 36 85 127 204 132 192 192 229 249 171 285 187 250 265 268 288 158 253 274 278 271 317 326 326 319 311
60 87 110 132 129 134 128 110 350 123 74 26 345 102 98 55 63 109 101 60 96 200 246 257 188 258 251 268 214 282 276 250 252 253 258 188 247 259 254 310 325 330 324 318 313
61 86 120 131 115 141 125 333 42 48 221 97 90 86 94 84 106 125 96 139 232 234 237 280 201 235 214 230 185 224 281 262 237 221 291 149 225 273 280 301 334 330 322 318 313
76 104 114 111 112 129 114 306 66 177 105 168 136 114 109 68 77 151 154 152 192 217 135 1 201 195 176 221 196 186 224 305 299 303 306 140 241 230 21 332 338 326 321 316 321
99 97 94 84 48 186 195 61 69 95 130 148 151 99 98 101 129 154 214 243 243 198 277 239 235 167 214 183 194 136 214 334 272 221 270 237 257 252 333 338 333 325 325 323 329
74 62 31 22 31 54 87 88 94 129 132 173 119 238 157 165 186 230 214 150 233 197 230 56 287 185 192 221 222 227 9 238 199 295 293 241 269 291 337 319 324 330 328 329 332
46 78 14 56 54 51 66 86 104 76 185 175 153 136 170 166 201 208 223 202 235 161 199 184 245 109 190 206 155 188 230 230 278 272 303 309 339 54 317 323 323 314 318 325 335
44 64 7 69 54 29 69 20 153 337 67 103 104 103 161 177 185 217 226 238 169 176 220 189 275 289 251 156 181 266 276 243 278 170 230 284 294 4 327 328 332 328 336 351 358
77 59 31 101 89 81 105 79 67 360 35 106 142 207 175 184 224 231 215 236 204 195 314 191 299 301 172 154 161 249 239 278 283 275 256 295 302 329 326 341 349 351 360 3 9
108 76 35 61 89 113 118 31 60 29 45 24 74 127 157 191 227 229 247 286 173 228 216 235 270 248 276 320 303 258 266 269 236 278 315 268 288 314 328 353 352 355 3 12 21
74 90 115 88 54 110 121 51 82 24 16 13 145 181 203 198 206 226 193 286 155 21 124 259 277 252 266 257 253 262 274 273 229 264 263 312 303 312 343 357 354 0 9 18 20
113 139 104 104 53 197 5 126 153 170 311 202 267 310 273 277 349 55 317 30 22 30 170 214 288 308 284 285 248 265 264 260 263 259 257 275 284 0 355 4 9 11 10 13 16
111 130 137 154 146 185 296 174 176 174 197 234 227 271 105 65 17 277 264 242 262 276 243 237 288 319 278 321 302 272 262 227 178 202 234 254 304 326 350 9 15 7 19 16 17